Wind_Speed
3 2 9 9 9 10 10 12 12 16 18 18 19 19 19 17 16 16 18 16 18 18 18 17 17 18 18 21 21 21 21 21 21 21 20 20 19 18 19 21 18 17 18
2 3 8 10 11 10 14 16 17 17 20 19 20 22 23 20 17 18 19 19 20 17 17 16 16 17 17 19 19 19 21 22 23 25 22 22 19 18 17 18 17 17 18
4 3 3 6 11 14 16 17 19 17 19 20 22 23 23 19 19 20 20 20 19 19 16 17 16 16 17 18 18 17 19 20 21 22 19 17 18 19 20 16 16 16 16
8 9 5 5 9 12 13 14 18 16 23 27 24 22 21 19 18 18 17 18 19 17 18 17 16 18 18 17 17 18 19 19 20 17 17 17 18 18 17 18 20 16 16
7 10 10 13 15 13 8 10 16 21 30 24 22 21 22 20 20 18 17 18 18 17 17 17 17 17 18 18 17 18 19 20 21 17 17 16 15 16 17 17 17 18 20
8 8 11 14 14 13 17 13 24 27 25 26 20 20 20 21 19 17 17 18 17 17 16 17 17 17 16 15 17 18 19 19 16 15 15 15 15 14 14 15 14 13 14
13 8 10 11 12 13 17 9 13 27 21 22 20 19 21 21 19 16 16 16 16 17 16 16 16 16 15 14 15 15 14 14 13 13 13 13 12 12 13 14 14 14 14
14 13 11 11 12 15 17 16 14 15 17 17 19 20 20 19 17 16 16 15 15 16 16 16 16 15 13 12 12 12 11 11 11 10 10 10 10 10 11 11 11 11 12
12 14 14 17 12 14 16 16 16 13 14 15 16 20 19 17 16 16 15 15 14 15 15 15 15 14 11 10 10 9 8 7 9 8 8 7 9 9 9 10 9 10 11
12 11 17 20 21 18 19 19 20 20 18 16 18 20 18 17 16 16 15 15 15 15 14 14 14 13 10 9 8 8 6 6 7 8 8 7 8 8 8 9 9 10 10
15 14 17 21 23 23 19 19 20 20 20 21 22 22 20 13 12 13 15 15 14 14 14 13 10 8 8 8 7 6 6 7 7 8 7 7 7 7 9 11 11 11 11
16 16 17 22 24 24 24 24 21 23 21 16 17 18 15 12 11 11 14 14 13 13 13 11 10 9 8 8 7 6 7 8 9 9 9 9 10 12 13 13 14 13 13
20 18 19 21 23 26 27 28 23 17 17 16 18 17 16 15 13 11 11 10 9 11 9 10 8 7 7 7 7 6 7 8 9 9 10 11 11 13 13 13 12 12 11
27 23 20 20 23 23 25 26 19 15 14 14 16 16 16 15 13 12 10 11 9 9 9 8 7 7 8 8 8 8 8 8 9 10 12 12 13 13 12 12 12 11 11
27 26 25 23 21 22 23 21 19 17 15 13 15 16 14 13 12 11 10 9 9 8 8 8 7 6 7 8 8 8 9 9 9 10 11 15 14 13 13 12 11 11 10
29 29 27 25 23 24 21 21 17 16 16 15 15 16 15 11 12 11 9 8 7 6 7 7 6 6 6 7 7 7 7 8 8 9 9 10 13 13 12 12 11 10 9
29 29 29 26 25 25 22 19 17 16 16 14 12 14 14 13 11 11 9 8 7 7 6 6 6 6 6 6 6 7 7 7 7 7 6 5 6 10 11 12 11 10 10
24 28 27 26 26 24 22 22 18 17 16 16 15 13 13 12 12 10 9 8 7 7 5 5 4 5 4 4 5 6 6 6 6 6 5 4 4 4 7 10 9 10 11
24 26 29 27 27 25 23 22 18 19 19 20 19 17 15 13 12 10 8 7 6 6 5 5 5 4 4 4 4 5 6 5 5 5 5 4 5 5 6 10 12 10 11
24 27 28 31 30 27 23 20 18 18 20 21 22 21 19 17 14 11 10 8 7 6 5 5 5 5 5 4 5 5 4 5 4 4 4 3 4 4 7 9 9 9 12
23 25 29 31 31 31 29 26 20 19 19 20 22 21 19 18 17 14 11 10 7 6 5 5 5 4 7 4 3 3 3 4 4 3 2 0 2 3 6 9 8 10 10
21 24 26 27 29 29 27 25 19 22 16 17 21 21 19 18 16 14 11 10 9 7 6 4 3 4 4 5 3 4 3 4 5 5 5 4 4 4 7 8 8 10 9
16 20 23 25 27 28 25 22 18 21 17 16 17 19 20 19 18 15 12 10 9 7 6 5 4 3 4 3 2 2 3 1 2 4 5 3 4 5 9 9 10 8 8
8 13 18 22 24 26 27 26 26 24 24 23 22 21 22 20 19 17 15 11 9 7 7 6 4 4 3 4 3 5 6 3 1 3 3 3 4 7 7 7 7 7 8
2 8 14 20 23 25 27 25 24 19 19 22 24 26 24 22 19 18 16 14 11 9 8 7 6 5 4 3 3 3 4 4 3 1 3 3 7 5 7 9 7 7 7
4 4 10 16 21 26 26 26 25 23 24 25 26 27 27 25 22 19 17 16 13 11 9 8 6 5 5 5 5 4 3 1 1 2 3 5 9 8 10 7 6 6 6
Wind_Direction
177 219 199 193 182 200 198 192 179 172 164 155 147 141 131 132 129 117 116 120 105 98 90 88 87 91 98 101 99 96 93 94 96 98 100 96 92 86 83 82 78 77 78
179 223 203 211 202 206 204 202 188 179 167 155 142 129 121 117 114 112 109 105 102 96 91 89 85 89 94 98 98 95 98 98 98 92 85 85 87 85 84 90 85 80 77
123 132 122 263 221 207 207 209 199 185 170 147 134 126 124 121 105 97 94 96 94 94 97 92 99 93 98 96 97 94 101 103 98 92 90 85 79 75 75 81 84 80 75
114 131 87 71 195 210 212 218 206 194 178 146 135 125 117 114 105 98 99 98 97 96 96 93 91 96 102 101 94 101 103 104 99 87 85 88 82 72 73 72 76 75 71
105 129 103 106 94 127 116 322 192 140 109 108 115 113 110 109 102 105 106 100 100 97 96 94 90 88 88 90 97 106 107 104 93 89 83 81 81 70 68 67 64 66 69
135 109 123 109 107 91 89 46 152 122 112 112 113 114 111 106 107 108 102 101 101 100 96 95 92 91 93 99 111 112 111 105 87 86 85 76 71 66 66 66 65 70 69
146 122 124 124 119 114 97 108 67 91 110 111 114 115 111 109 108 106 102 102 102 100 97 95 93 92 101 112 118 117 114 109 89 84 78 76 72 68 67 67 65 62 60
151 140 129 132 124 117 119 120 106 94 100 116 115 109 104 104 108 106 104 103 105 102 97 96 93 93 103 118 127 124 121 110 84 79 77 71 70 65 64 65 66 66 66
146 157 139 126 130 124 129 126 125 125 120 111 114 106 109 113 115 113 112 110 104 101 98 96 94 96 110 128 135 133 128 120 85 79 68 59 60 66 66 67 67 67 68
158 151 150 140 131 125 122 127 127 128 134 133 123 118 119 119 119 116 110 104 104 101 99 100 98 98 108 131 133 127 122 115 82 76 65 58 55 55 61 68 68 69 70
176 162 159 155 148 139 124 134 133 134 139 146 146 147 137 125 119 115 114 108 103 104 101 101 109 110 109 117 129 121 115 86 77 70 65 65 67 63 65 69 70 70 71
184 176 168 166 161 160 157 153 152 159 159 156 155 155 145 135 134 128 128 123 115 106 105 109 112 109 99 98 96 98 83 84 76 67 61 62 78 82 83 75 70 69 69
192 185 179 171 169 170 171 172 168 166 167 160 160 158 159 157 151 141 131 123 114 110 103 104 101 102 97 90 83 83 87 88 90 77 75 73 86 85 82 74 70 66 60
191 193 187 182 174 173 175 176 173 171 166 160 165 167 163 160 155 145 141 132 128 120 116 110 106 99 92 90 87 82 84 92 98 94 88 88 85 85 78 72 63 61 61
195 192 190 186 183 179 179 177 177 177 169 169 167 168 170 168 156 147 143 135 131 125 120 112 108 98 93 85 81 84 84 95 105 106 98 83 80 78 75 66 60 54 48
197 195 189 188 188 189 187 185 179 175 170 171 172 172 169 167 159 156 139 139 131 129 129 120 110 99 92 89 89 88 89 94 101 107 112 91 81 76 66 54 44 41 39
201 192 192 188 189 190 190 187 182 175 173 171 170 171 173 167 161 153 153 138 141 124 110 102 93 92 97 101 102 112 106 98 99 106 113 112 83 73 54 46 36 28 24
199 196 191 187 188 187 186 184 182 182 179 178 174 171 175 169 160 150 147 142 144 125 117 104 87 79 90 115 120 123 127 114 111 108 104 99 83 67 14 14 18 19 11
206 195 191 189 187 183 183 184 180 183 184 185 183 180 176 172 166 154 144 139 132 125 116 105 95 95 92 107 116 117 130 134 134 133 123 99 80 63 30 357 358 358 358
207 201 196 189 185 182 179 175 172 176 181 181 183 182 177 172 167 159 152 146 139 125 118 114 112 88 91 108 112 114 135 137 131 138 133 104 75 36 21 359 352 347 347
207 204 198 191 188 180 176 174 175 178 177 180 179 180 178 172 169 163 157 150 146 135 134 139 119 99 66 84 128 108 131 156 149 144 176 192 348 359 5 348 348 344 335
209 206 203 200 191 187 184 179 175 177 183 179 179 179 179 176 171 167 161 156 151 141 120 105 149 136 86 56 218 206 185 174 214 219 232 229 285 316 340 342 348 341 336
206 206 206 203 197 190 185 176 163 161 161 171 174 175 178 178 175 175 167 157 156 143 127 113 100 145 157 101 74 264 182 144 167 199 231 240 288 318 332 334 334 332 334
217 207 204 202 199 197 188 182 181 182 176 184 175 177 175 176 175 171 169 158 149 143 141 135 126 121 153 159 113 59 72 76 222 201 197 221 284 308 320 324 324 329 335
223 203 200 195 196 197 194 193 189 180 171 168 168 172 173 173 176 176 172 164 156 154 150 146 138 132 130 134 117 126 85 66 60 288 276 238 303 294 308 319 311 321 324
20 196 196 198 197 196 194 194 188 179 172 164 171 170 176 175 176 177 173 169 167 161 155 151 148 142 142 136 127 116 126 139 164 262 278 296 303 308 304 293 291 310 310
Height
782 782 783 784 786 787 788 790 789 789 790 791 791 793 792 795 796 797 797 799 799 799 799 800 800 799 800 800 801 802 802 803 803 803 804 805 805 806 804 804 806 806 806
782 782 782 783 785 786 787 789 789 788 789 790 791 791 791 794 796 798 797 800 800 800 801 801 801 801 803 802 804 804 804 805 806 807 807 806 807 807 807 807 808 808 807
781 781 782 783 782 784 785 787 789 790 790 792 792 792 792 794 795 797 799 800 802 803 804 803 804 805 805 805 806 806 805 806 808 808 808 808 809 809 809 810 810 810 810
781 782 783 780 781 782 785 787 788 793 792 790 792 793 793 793 798 799 802 802 803 805 805 805 806 806 806 807 808 807 808 808 809 810 810 811 812 813 813 812 812 812 812
781 782 783 781 781 781 782 784 788 787 775 782 790 796 797 799 800 803 806 804 806 806 807 807 807 808 808 808 809 810 809 811 812 813 813 814 815 815 814 814 813 813 813
782 783 783 783 783 782 781 781 785 783 787 788 797 800 799 798 802 806 806 806 808 808 809 808 809 809 809 810 811 811 811 812 814 815 815 816 816 816 816 816 815 815 815
782 783 784 785 784 783 779 783 782 786 796 795 798 802 801 801 804 807 808 809 810 809 811 809 810 810 810 811 813 813 814 814 816 817 818 818 818 818 817 817 817 817 816
782 784 784 786 786 787 786 789 785 791 798 802 801 801 801 803 806 809 810 812 812 811 811 811 811 810 811 813 814 814 815 816 817 819 820 820 820 820 819 819 819 818 818
783 784 784 785 789 790 791 792 789 793 801 801 803 801 804 808 811 812 813 813 813 812 812 813 811 811 811 813 814 815 816 817 818 820 821 822 822 821 820 820 820 820 819
784 783 785 786 789 791 793 795 796 797 801 803 804 804 807 811 813 813 814 813 813 812 812 812 812 812 813 814 816 816 817 818 819 820 821 822 823 823 822 821 821 820 820
783 784 785 787 787 792 794 797 799 802 805 804 804 805 807 811 814 814 813 814 815 814 813 812 813 814 815 815 816 817 818 819 820 822 823 823 823 824 824 823 823 822 821
780 782 784 787 787 788 794 799 802 803 803 804 805 805 807 810 813 814 812 813 814 814 812 812 814 816 816 816 817 819 819 820 821 824 825 825 825 824 825 825 824 824 825
777 781 783 785 787 788 790 793 799 802 802 802 802 805 807 809 811 812 812 813 813 814 814 815 815 816 817 817 818 820 821 821 823 825 827 827 827 825 825 826 826 825 825
773 776 779 782 784 786 788 791 794 797 799 800 802 805 806 809 811 810 813 812 814 814 814 815 816 817 816 817 818 821 822 823 824 827 828 828 828 828 828 827 828 827 826
769 772 775 780 783 786 788 789 791 793 796 800 802 804 806 809 809 810 812 812 814 814 814 815 817 817 817 817 819 822 822 825 825 827 828 828 829 829 829 829 829 828 827
760 764 769 772 778 782 785 788 791 794 794 799 802 804 805 809 809 811 811 813 814 815 816 816 817 817 819 819 821 823 825 825 826 827 829 829 829 830 829 829 830 829 828
754 759 763 769 773 777 782 786 789 792 795 799 802 803 806 807 808 809 813 812 816 815 815 817 818 819 820 822 823 823 825 826 826 827 829 830 829 828 830 828 828 829 828
750 756 762 766 769 775 779 782 786 790 794 797 800 802 805 807 807 810 812 814 815 814 818 818 819 819 822 823 824 822 824 826 826 829 829 830 829 828 830 829 826 826 826
746 750 755 761 766 771 776 780 784 787 791 793 796 800 802 805 807 810 812 813 814 816 817 819 820 821 822 824 824 822 823 825 827 830 829 830 828 829 829 830 827 823 824
741 745 749 753 758 766 773 778 783 787 789 792 795 798 801 803 805 808 812 813 816 816 818 820 821 821 820 822 822 823 824 825 826 828 829 830 828 829 827 830 828 825 823
737 742 745 749 754 759 764 771 778 783 787 791 793 797 801 801 803 806 810 811 815 817 818 819 820 820 820 819 823 823 825 825 825 827 829 829 829 829 827 829 827 824 823
733 737 743 748 752 757 761 766 773 780 786 788 790 794 797 799 801 805 808 810 813 815 816 818 820 821 820 819 824 822 819 824 824 825 830 827 829 828 827 827 824 823 822
730 735 741 747 751 755 761 767 771 775 781 786 789 792 795 797 800 803 807 809 813 814 815 818 819 820 822 822 824 819 813 809 820 825 826 825 827 827 825 825 823 823 821
730 734 737 744 750 756 759 762 766 768 772 778 782 787 792 796 800 804 807 810 811 813 816 817 820 820 822 823 822 819 818 819 817 817 824 825 826 825 824 824 823 822 819
731 733 736 739 745 752 756 760 764 767 772 775 780 785 790 793 798 801 803 805 809 813 814 816 817 818 821 822 821 820 820 822 823 823 818 821 824 823 822 822 820 819 818
733 734 736 739 741 745 751 755 759 764 768 773 779 783 788 792 796 800 802 803 806 810 811 814 817 818 819 819 819 820 820 821 823 825 825 822 822 820 820 819 818 818 816